Date String (YYYY-MM-DD hh:mm:ss) UTC,Instrument flags,Ambient pressure (hPa),Sample flow (lpm),Bypass flow (lpm),Sample temperature (°C),Ambient temperature (°C),ASC tube jacket temperature (°C),LED temperature (°C),Box temperature (°C),Sample RH (%),Span deviation,Mass concentration (μg/m³),Mass concentration (μg/m³),Mass concentration (μg/m³)
DateTimeUTC,F1_M11,P_M11,Q1_M11,Q2_M11,T1_M11,T2_M11,T3_M11,T4_M11,T5_M11,U1_M11,ZSPAN_M11,X0_M11,X2_M11,X1_M11
2023-04-30 13:00:00,,0831.7,5.00,0.00,24.5,23.2,00.0,32.7,26.1,19.2,0000.0,0015.27,0005.33,0003.42
2023-04-30 13:01:00,,0831.7,5.00,0.00,24.5,23.1,00.0,32.7,26.1,19.5,0000.0,0015.33,0005.37,0003.43
2023-04-30 13:02:00,,0831.7,5.00,0.00,24.5,23.1,00.0,32.7,26.1,19.5,0000.0,0015.04,0005.44,0003.44
2023-04-30 13:03:00,,0831.7,5.00,0.00,24.5,23.1,00.0,32.8,26.1,19.8,0000.0,0014.41,0005.43,0003.44
2023-04-30 13:04:00,,0831.7,5.00,0.00,24.5,23.1,00.0,32.8,26.1,20.0,0000.0,0015.37,0005.43,0003.45
2023-04-30 13:05:00,,0831.7,5.00,0.00,24.5,23.1,00.0,32.8,26.1,20.1,0000.0,0015.88,0005.48,0003.46
2023-04-30 13:06:00,,0831.7,5.00,0.00,24.5,23.1,00.0,32.8,26.1,20.3,0000.0,0016.02,0005.53,0003.46
2023-04-30 13:07:00,,0831.7,5.01,0.00,24.5,23.0,00.0,32.8,26.1,20.1,0000.0,0016.89,0005.63,0003.44
2023-04-30 13:08:00,,0831.7,5.01,0.00,24.4,23.0,00.0,32.8,26.1,19.7,0000.0,0017.60,0005.68,0003.42
2023-04-30 13:09:00,,0831.7,5.00,0.00,24.4,23.0,00.0,32.8,26.0,19.6,0000.0,0018.70,0005.75,0003.43
2023-04-30 13:10:00,,0831.7,4.99,0.00,24.4,22.9,00.0,32.8,26.0,20.0,0000.0,0019.14,0005.73,0003.43
2023-04-30 13:11:00,,0831.7,4.99,0.00,24.4,22.9,00.0,32.8,26.0,20.2,0000.0,0019.48,0005.69,0003.40
2023-04-30 13:12:00,,0831.7,4.99,0.00,24.4,22.9,00.0,32.8,25.9,20.2,0000.0,0018.39,0005.61,0003.36
2023-04-30 13:13:00,,0831.7,5.00,0.00,24.4,22.9,00.0,32.8,25.9,20.0,0000.0,0018.50,0005.54,0003.32
2023-04-30 13:14:00,,0831.7,5.01,0.00,24.4,22.8,00.0,32.7,25.9,19.9,0000.0,0019.16,0005.54,0003.29
2023-04-30 13:15:00,,0831.7,5.00,0.00,24.4,22.8,00.0,32.7,25.9,19.7,0000.0,0018.26,0005.53,0003.26
2023-04-30 13:16:00,,0831.7,5.01,0.00,24.4,22.8,00.0,32.7,25.9,19.8,0000.0,0018.31,0005.49,0003.23
2023-04-30 13:17:00,,0831.7,5.00,0.00,24.3,22.8,00.0,32.7,25.9,20.1,0000.0,0018.30,0005.40,0003.22
2023-04-30 13:18:00,,0831.7,5.00,0.00,24.3,22.8,00.0,32.7,25.9,20.0,0000.0,0017.52,0005.32,0003.22
2023-04-30 13:19:00,,0831.7,5.00,0.00,24.3,22.8,00.0,32.7,25.8,19.9,0000.0,0017.28,0005.29,0003.23
2023-04-30 13:20:00,,0831.7,4.99,0.00,24.3,22.7,00.0,32.7,25.9,19.7,0000.0,0016.65,0005.22,0003.20
2023-04-30 13:21:00,,0831.7,4.99,0.00,24.3,22.8,00.0,32.7,25.8,19.7,0000.0,0016.71,0005.21,0003.18
2023-04-30 13:22:00,,0831.8,5.00,0.00,24.3,22.8,00.0,32.7,25.8,20.0,0000.0,0016.56,0005.20,0003.16
2023-04-30 13:23:00,,0831.7,5.00,0.00,24.3,22.8,00.0,32.7,25.9,19.9,0000.0,0016.60,0005.21,0003.17
2023-04-30 13:24:00,,0831.7,5.00,0.00,24.3,22.8,00.0,32.7,25.9,19.8,0000.0,0016.56,0005.20,0003.17
2023-04-30 13:25:00,,0832.0,5.00,0.00,24.3,22.8,00.0,32.7,25.8,19.4,0000.0,0016.50,0005.13,0003.15
2023-04-30 13:26:00,,0832.2,5.00,0.00,24.3,22.7,00.0,32.7,25.8,19.4,0000.0,0017.59,0005.18,0003.15
2023-04-30 13:27:00,,0832.3,5.00,0.00,24.3,22.8,00.0,32.7,25.8,19.8,0000.0,0017.47,0005.18,0003.15
2023-04-30 13:28:00,,0832.0,5.00,0.00,24.3,22.8,00.0,32.7,25.9,19.9,0000.0,0017.71,0005.17,0003.12
2023-04-30 13:29:00,,0832.3,4.99,0.00,24.3,22.9,00.0,32.7,25.9,19.4,0000.0,0017.76,0005.12,0003.12
2023-04-30 13:30:00,,0832.2,5.00,0.00,24.3,22.9,00.0,32.7,25.9,19.7,0000.0,0017.59,0005.09,0003.11
2023-04-30 13:31:00,,0832.1,5.01,0.00,24.4,23.0,00.0,32.7,26.0,19.4,0000.0,0017.40,0005.06,0003.10
2023-04-30 13:32:00,,0832.2,5.01,0.00,24.4,23.0,00.0,32.7,26.0,19.6,0000.0,0017.01,0005.07,0003.09
2023-04-30 13:33:00,,0832.0,5.00,0.00,24.4,23.1,00.0,32.7,26.0,19.0,0000.0,0016.34,0005.04,0003.08
2023-04-30 13:34:00,,0831.9,5.00,0.00,24.4,23.1,00.0,32.7,26.0,18.9,0000.0,0016.11,0005.05,0003.05
2023-04-30 13:35:00,,0832.4,5.00,0.00,24.4,23.1,00.0,32.7,26.0,18.8,0000.0,0015.93,0005.01,0003.05
2023-04-30 13:36:00,,0832.2,5.01,0.00,24.5,23.2,00.0,32.7,26.1,19.1,0000.0,0015.22,0005.01,0003.03
2023-04-30 13:37:00,,0832.3,5.00,0.00,24.5,23.2,00.0,32.7,26.1,18.7,0000.0,0014.06,0004.94,0003.03
2023-04-30 13:38:00,,0832.1,5.00,0.00,24.5,23.2,00.0,32.8,26.1,18.6,0000.0,0013.93,0004.92,0003.02
2023-04-30 13:39:00,,0832.2,5.00,0.00,24.5,23.3,00.0,32.8,26.2,18.8,0000.0,0013.29,0004.83,0003.01
2023-04-30 13:40:00,,0832.3,5.01,0.00,24.5,23.3,00.0,32.8,26.2,18.6,0000.0,0013.15,0004.85,0002.98
2023-04-30 13:41:00,,0832.3,4.99,0.00,24.6,23.3,00.0,32.8,26.2,18.4,0000.0,0013.05,0004.82,0002.94
2023-04-30 13:42:00,,0832.3,5.00,0.00,24.6,23.3,00.0,32.8,26.2,18.3,0000.0,0012.90,0004.83,0002.95
2023-04-30 13:43:00,,0832.2,5.00,0.00,24.6,23.3,00.0,32.8,26.3,18.4,0000.0,0012.61,0004.85,0002.96
2023-04-30 13:44:00,,0832.2,5.00,0.00,24.6,23.4,00.0,32.8,26.3,18.5,0000.0,0013.68,0004.87,0002.97
2023-04-30 13:45:00,,0832.1,5.00,0.00,24.6,23.4,00.0,32.9,26.2,18.4,0000.0,0014.00,0004.86,0002.98
2023-04-30 13:46:00,,0832.3,5.00,0.00,24.7,23.4,00.0,32.9,26.3,18.2,0000.0,0013.78,0004.86,0002.97
2023-04-30 13:47:00,,0832.3,5.00,0.00,24.7,23.4,00.0,32.9,26.3,18.7,0000.0,0013.71,0004.91,0002.97
2023-04-30 13:48:00,,0832.1,4.99,0.00,24.7,23.4,00.0,32.9,26.3,18.7,0000.0,0013.52,0004.91,0002.95
2023-04-30 13:49:00,,0832.0,5.00,0.00,24.7,23.4,00.0,32.9,26.3,18.7,0000.0,0013.33,0004.92,0002.93
2023-04-30 13:50:00,,0831.8,5.01,0.00,24.7,23.5,00.0,32.9,26.3,18.5,0000.0,0014.01,0005.01,0002.95
2023-04-30 13:51:00,,0831.8,5.01,0.00,24.7,23.5,00.0,33.0,26.4,18.5,0000.0,0014.27,0005.09,0002.96
2023-04-30 13:52:00,,0831.7,5.01,0.00,24.8,23.5,00.0,33.0,26.4,18.7,0000.0,0015.27,0005.12,0002.97
2023-04-30 13:53:00,,0832.3,4.99,0.00,24.8,23.5,00.0,33.0,26.4,18.4,0000.0,0015.38,0005.11,0002.95
2023-04-30 13:54:00,,0832.1,5.00,0.00,24.8,23.5,00.0,33.0,26.4,18.1,0000.0,0015.81,0005.04,0002.94
2023-04-30 13:55:00,,0832.3,4.99,0.00,24.8,23.5,00.0,33.0,26.5,18.5,0000.0,0015.04,0005.07,0002.93
2023-04-30 13:56:00,,0832.2,5.00,0.00,24.8,23.5,00.0,33.0,26.5,18.4,0000.0,0015.14,0005.13,0002.91
2023-04-30 13:57:00,,0832.3,5.01,0.00,24.8,23.6,00.0,33.0,26.5,18.7,0000.0,0015.49,0005.20,0002.93
2023-04-30 13:58:00,,0832.2,5.01,0.00,24.9,23.6,00.0,33.1,26.5,19.3,0000.0,0015.88,0005.17,0002.94
2023-04-30 13:59:00,,0832.2,5.01,0.00,24.9,23.6,00.0,33.1,26.5,18.9,0000.0,0016.06,0005.16,0002.97
